Location: Champignolles
(47.0543°N, 4.5663°E)
Time: 14:23:47
(UTC+00:00)

Cosmos 1603 - Pass Details

Date: 30 November 2020
Orbit: 831 x 859 km, 71.0° (Epoch: 26 January)

Event Time Altitude Azimuth Distance (km) Brightness Sun altitude
Rises 17:58:57 0° 198° (SSW) 3,375 7.2 -20.5°
Reaches altitude 10° 18:01:23 10° 196° (SSW) 2,441 6.4 -20.9°
Maximum altitude 18:06:57 72° 113° (ESE) 879 3.5 -21.8°
Enters shadow 18:09:01 40° 41° (NE) 1,220 4.1 -22.2°
